Theta_e
343 346 349 350 351 353 356 361 363 371 364 358 362 356 353 357 355 355 367 366 364 366 363 359 360 359 358 357 351 346 346 339 344 337 338 339 342 342 342 338 336 338 338
339 344 348 349 350 353 357 365 366 372 369 361 363 361 356 354 354 357 367 364 364 365 363 364 358 359 351 352 348 347 340 339 342 336 334 330 336 344 337 336 334 335 335
335 341 345 348 350 352 358 364 370 372 372 370 367 365 367 360 359 356 359 361 363 363 365 362 362 358 351 337 348 346 343 336 342 345 335 328 327 333 338 338 334 335 333
338 340 345 348 349 353 357 366 371 373 372 374 365 368 356 350 349 352 353 358 365 362 363 363 357 355 345 353 347 344 345 344 338 338 338 340 338 328 326 335 335 335 333
338 339 343 347 350 352 354 362 372 374 375 373 370 361 360 352 352 350 365 368 369 360 357 357 355 351 342 350 350 346 347 345 338 336 335 342 334 337 327 324 328 333 334
338 341 343 347 348 351 354 360 371 374 375 375 369 370 369 362 352 353 352 353 353 355 358 355 356 352 348 349 347 348 347 345 344 340 340 334 330 330 329 325 329 327 331
337 339 342 344 349 353 356 360 369 373 374 371 371 371 371 372 368 363 354 358 347 349 361 360 357 350 351 350 349 349 347 344 341 344 338 342 336 334 331 328 326 326 330
339 337 341 345 351 352 358 360 365 371 374 372 373 374 374 360 358 363 356 350 348 350 364 357 355 352 349 349 349 342 340 346 341 342 346 337 338 337 333 330 331 328 327
338 338 339 342 348 351 357 361 365 369 371 366 374 374 373 371 361 366 368 356 360 350 353 355 354 352 347 349 348 340 345 343 343 344 346 340 336 334 333 334 340 333 323
337 339 339 341 346 348 354 360 364 368 367 369 370 368 370 373 372 374 370 365 362 362 358 357 354 350 350 350 350 345 346 344 339 336 345 345 336 337 335 337 334 332 327
336 339 340 341 344 346 351 354 359 364 366 368 368 369 367 369 372 370 370 370 366 365 360 359 356 350 348 348 350 347 344 344 345 345 341 343 347 337 334 333 333 330 331
335 339 341 342 343 346 346 349 352 354 361 365 369 369 370 369 368 370 371 371 367 366 361 358 354 350 345 341 348 344 343 339 339 340 343 341 338 347 348 336 345 340 339
333 338 340 342 343 345 348 346 351 349 353 362 362 366 366 368 368 370 370 371 369 365 358 358 355 348 348 348 349 348 342 342 342 342 343 342 345 346 339 343 337 335 337
337 338 341 345 347 350 352 351 350 348 351 355 356 363 366 367 367 370 370 370 368 366 359 356 352 350 348 348 347 347 346 346 345 344 344 344 343 344 345 342 345 341 336
337 340 342 351 355 355 356 356 353 355 354 359 358 362 369 369 369 369 370 369 368 364 358 355 350 348 344 342 347 344 343 344 343 343 342 344 343 339 339 339 338 341 334
330 340 344 347 355 357 359 359 358 359 359 363 362 366 371 371 370 370 371 367 363 360 356 349 344 341 338 331 333 341 339 346 344 341 345 346 341 338 333 333 332 331 334
330 339 343 347 352 352 360 360 362 362 363 366 368 370 374 371 371 369 365 361 356 357 352 347 339 339 344 328 328 332 340 342 344 346 344 341 339 337 338 333 329 328 327
332 337 342 348 355 353 354 359 359 366 367 369 369 371 373 370 369 365 361 356 354 353 349 344 343 344 345 328 325 331 341 342 342 346 347 347 344 341 339 338 333 334 338
332 339 345 349 359 357 361 362 358 362 362 362 365 367 366 365 363 359 357 354 351 350 345 342 341 344 346 323 322 330 341 339 344 346 346 344 342 333 324 333 329 329 331
333 343 346 351 354 358 356 356 355 356 357 360 360 365 366 362 358 358 356 354 354 349 345 342 344 339 346 321 319 328 336 337 339 342 346 327 332 318 318 330 328 329 331
343 348 350 354 357 359 354 356 355 353 355 357 358 361 360 360 359 356 357 354 352 348 345 342 346 349 345 343 316 316 336 338 337 338 337 336 316 314 312 313 328 326 323
344 345 349 351 353 356 356 357 357 361 363 362 359 359 359 355 353 352 353 351 348 345 345 346 346 345 350 326 316 314 315 326 336 339 337 335 314 314 311 312 315 313 312
344 345 345 350 351 358 359 358 365 365 363 360 359 357 354 353 353 353 348 343 344 341 342 339 342 346 349 342 316 313 314 316 328 331 313 312 309 308 307 308 313 311 318
343 344 345 348 351 357 356 360 360 360 359 354 350 350 349 347 347 346 343 340 339 340 342 341 342 342 341 339 334 325 327 316 320 317 322 318 316 311 315 316 315 319 321
344 346 346 347 349 353 355 354 356 357 353 353 350 348 346 345 341 336 334 339 333 330 338 339 340 335 331 333 322 321 327 331 322 327 328 325 324 323 323 322 322 321 322
343 346 346 348 350 351 352 353 354 354 350 347 346 344 343 342 340 334 325 300 303 300 299 302 317 327 308 301 299 298 300 302 305 322 322 321 321 320 320 321 321 320 317
Wind_Speed
20 19 19 19 19 18 18 16 15 13 10 9 7 10 10 10 10 9 8 5 6 9 4 8 7 5 8 2 5 5 6 4 1 5 4 4 7 4 2 6 5 3 5
21 20 21 20 20 19 18 16 15 14 12 11 10 10 8 9 8 6 5 8 7 9 9 7 6 3 5 0 2 3 5 4 4 6 4 3 5 1 7 4 3 5 5
22 22 21 21 21 20 19 17 16 15 14 15 9 6 5 6 5 8 9 7 8 5 6 4 6 3 2 3 3 4 1 7 1 2 5 3 3 4 6 6 6 2 4
22 22 23 22 22 20 20 17 17 15 15 14 12 12 9 9 9 8 9 9 12 10 9 7 4 2 5 3 3 3 4 3 3 3 5 2 4 6 1 5 7 5 4
23 23 25 24 21 21 20 18 17 16 15 15 14 11 12 10 8 7 6 4 7 6 7 5 4 3 4 4 4 1 3 1 5 2 2 5 3 5 4 6 1 2 4
23 23 22 23 22 21 20 19 18 17 17 15 16 14 12 12 8 8 7 7 8 8 7 8 6 5 4 2 4 3 4 5 4 6 3 3 3 1 2 4 5 5 4
21 23 24 23 22 21 20 18 19 19 17 18 17 16 13 11 10 7 9 7 8 8 11 8 7 7 6 4 3 3 5 4 4 3 6 2 3 3 3 5 6 7 7
22 24 25 23 22 22 21 20 20 18 18 17 16 14 14 11 11 11 8 9 7 7 11 11 10 8 7 7 5 6 6 6 5 5 5 7 3 8 3 4 3 3 7
22 26 25 24 22 22 22 21 19 19 19 19 15 15 14 15 13 12 12 9 9 7 9 11 10 10 9 7 6 6 7 5 5 6 6 7 6 5 5 4 3 1 4
20 23 24 24 22 24 22 21 20 20 18 18 16 15 16 15 13 11 11 13 10 9 13 12 12 11 11 11 8 7 7 6 6 7 5 5 6 6 6 4 7 6 6
18 21 23 24 24 23 22 23 22 20 19 18 17 16 16 17 15 13 13 12 10 12 9 13 13 12 11 11 11 8 7 6 8 8 7 7 6 7 7 6 7 6 6
18 19 22 23 24 23 24 23 23 23 21 18 17 17 16 17 17 16 15 14 14 13 13 14 13 13 12 9 12 12 10 10 9 9 9 10 9 8 8 7 7 6 5
11 17 18 22 24 24 22 24 23 24 22 19 20 18 18 18 17 17 16 17 16 15 16 16 14 14 14 13 13 12 7 11 10 9 10 9 9 7 7 7 7 7 6
5 12 17 19 21 21 21 21 22 23 22 22 21 19 19 18 17 16 17 16 16 17 17 17 15 14 14 13 12 13 12 10 10 10 9 9 8 8 8 9 7 9 9
13 13 16 16 17 18 20 20 19 18 20 19 19 18 17 16 15 16 16 16 16 17 17 17 15 14 14 12 11 11 11 11 11 10 9 10 11 11 8 6 7 8 9
13 14 16 17 18 18 17 19 18 18 18 18 19 17 17 16 16 15 14 13 15 15 14 13 11 14 12 10 10 11 11 11 9 10 11 10 7 9 9 8 7 5 9
20 14 16 18 18 20 16 17 17 16 16 15 15 13 15 16 15 13 13 14 14 16 16 16 14 13 12 8 12 12 11 11 10 10 10 11 10 8 9 8 9 8 13
22 14 15 17 18 19 20 17 18 16 15 14 12 13 13 14 12 12 14 13 13 16 14 14 13 10 9 9 9 10 12 10 10 11 11 10 10 9 6 7 8 10 11
16 12 15 18 16 18 18 16 17 15 14 14 13 13 14 14 14 15 15 13 12 12 14 13 10 12 12 12 14 13 11 11 13 12 11 10 7 11 10 8 7 7 8
13 13 17 19 18 16 19 18 18 17 17 15 15 13 13 13 14 13 11 9 9 9 10 13 8 9 9 12 15 15 8 11 9 10 7 6 11 10 11 8 7 9 10
12 14 15 15 16 15 18 16 16 17 16 14 14 14 13 12 11 10 8 8 7 6 7 8 8 9 9 9 11 14 9 11 8 7 8 8 15 10 7 5 7 7 7
16 18 15 15 15 15 15 15 13 13 13 13 14 13 12 9 7 9 9 8 7 7 8 8 8 7 7 2 11 8 10 5 4 5 5 4 10 8 7 6 2 2 5
15 17 16 16 14 13 13 13 11 11 12 12 13 11 9 6 10 8 9 6 5 5 8 8 8 4 5 4 5 8 8 6 5 3 4 11 8 6 5 7 5 6 8
17 18 16 17 13 11 11 12 11 11 12 11 10 9 9 9 9 7 6 5 8 8 8 5 3 3 4 7 6 3 5 5 6 8 8 5 2 2 2 7 8 7 8
15 15 14 14 14 12 12 10 10 10 12 11 10 9 10 10 8 6 2 1 6 4 4 4 5 5 5 4 8 5 8 8 4 8 7 7 8 9 9 7 6 8 7
14 13 14 13 12 12 11 10 9 10 11 11 10 10 9 8 9 8 7 12 10 7 10 11 6 6 8 12 14 12 11 11 7 3 7 7 6 7 5 4 4 5 4
Wind_Direction
194 196 195 194 194 194 196 195 199 191 203 196 190 220 220 208 220 232 119 177 208 230 217 255 206 232 260 50 345 313 281 312 27 287 249 155 190 147 318 55 19 14 53
198 195 192 200 195 196 191 188 196 193 193 191 211 219 220 215 220 220 189 213 196 224 192 245 284 178 316 157 15 309 314 293 86 302 289 244 162 244 98 61 68 359 23
202 185 196 199 198 195 196 191 191 191 189 224 200 212 271 255 227 208 180 196 237 235 212 225 260 112 313 270 161 212 326 299 87 67 316 292 48 214 128 171 104 305 61
202 191 195 201 202 198 192 196 189 196 194 196 225 189 209 220 222 215 213 178 192 203 186 206 188 173 304 63 186 206 292 237 300 152 156 357 5 341 113 192 145 197 189
202 201 192 198 205 198 194 194 190 194 206 186 223 192 219 212 223 220 153 206 152 215 202 178 170 203 248 148 318 250 230 242 300 269 290 139 224 151 299 326 50 280 166
201 200 202 195 201 201 196 194 187 193 198 191 198 228 198 237 212 207 184 198 209 179 193 187 176 198 236 185 225 236 239 278 329 314 332 281 301 271 295 300 310 317 270
202 198 198 197 195 202 196 193 187 191 195 199 195 199 222 203 234 215 205 203 199 193 159 190 180 192 202 213 212 189 279 226 266 228 297 255 298 313 297 293 291 316 330
200 202 200 200 192 196 194 195 187 189 193 199 199 193 201 214 211 206 234 199 225 192 142 179 189 214 191 202 181 207 227 206 220 240 270 304 238 241 263 278 352 355 314
199 200 199 199 194 195 194 194 190 188 194 198 192 193 195 217 210 216 196 223 199 190 173 177 192 191 198 200 196 227 193 255 235 252 231 265 276 269 283 300 6 183 258
200 201 198 196 195 195 193 194 192 188 193 197 192 193 200 203 223 205 212 207 192 218 168 180 193 192 189 178 196 219 207 221 252 253 251 262 286 284 260 227 251 272 298
197 205 195 196 192 194 194 193 193 192 194 196 192 195 200 201 202 217 202 202 204 183 200 184 192 187 186 186 171 240 270 212 209 243 276 262 268 271 290 317 330 325 309
192 203 202 194 193 195 194 193 194 197 197 195 194 193 198 201 201 206 207 197 200 191 198 195 199 190 183 174 181 196 223 217 229 234 234 243 242 213 229 254 255 269 295
189 187 204 195 197 193 195 196 194 198 196 196 194 198 200 200 204 198 203 202 201 191 202 197 203 191 197 188 188 183 197 234 235 229 233 234 244 256 276 296 300 292 285
203 219 202 204 194 191 191 196 194 197 196 192 200 198 202 202 201 200 200 206 195 199 201 196 198 196 201 193 196 186 201 229 230 228 236 236 247 249 245 254 262 260 262
183 216 216 201 192 189 187 193 198 193 194 191 196 199 195 200 202 205 201 197 196 206 201 196 187 197 202 204 204 198 198 218 229 235 226 231 237 250 262 271 273 305 292
211 210 213 209 186 192 192 187 195 194 197 188 199 193 185 191 201 201 200 194 208 214 210 199 201 197 217 206 181 191 211 221 222 224 221 234 212 226 220 231 240 260 279
251 201 211 209 190 194 189 190 191 199 190 202 194 192 181 189 192 192 197 196 205 212 205 199 200 222 229 237 194 197 219 220 217 219 226 237 242 209 246 226 219 230 245
252 202 206 200 188 189 182 186 185 194 190 188 194 185 188 187 191 190 193 192 209 209 213 205 209 224 241 225 186 179 221 230 239 243 228 227 248 244 221 241 247 243 253
230 194 200 193 179 185 168 170 177 184 181 181 190 191 190 190 194 202 204 205 207 204 207 217 213 208 227 185 173 181 215 224 230 234 242 237 237 248 219 214 230 249 257
240 178 189 175 172 179 168 170 173 176 178 178 183 184 186 192 198 198 201 203 213 214 214 217 205 217 231 173 183 193 206 228 221 209 226 243 249 174 185 216 234 258 268
178 160 169 163 172 170 166 170 166 171 170 169 172 176 182 189 188 189 193 191 202 190 203 215 216 227 225 198 187 196 211 242 212 212 220 221 171 177 186 230 264 280 323
161 165 160 157 156 154 153 149 160 154 153 158 165 167 173 182 153 165 180 177 179 197 209 214 230 239 240 221 184 198 231 337 272 271 288 138 152 171 176 205 198 186 278
146 140 144 137 137 147 142 149 133 138 144 154 153 151 135 156 132 164 147 152 175 198 213 215 232 240 236 135 129 181 215 206 239 9 88 118 164 149 218 239 231 243 260
122 124 133 120 116 122 130 120 138 143 135 139 141 144 148 137 133 140 149 161 182 206 223 221 222 220 173 160 152 188 193 187 168 159 159 127 135 286 96 140 201 235 252
116 121 123 115 116 114 116 130 137 147 143 148 143 139 141 143 126 79 60 215 56 336 271 184 174 191 177 171 151 158 203 187 197 178 170 208 213 225 207 199 197 214 253
104 103 105 106 109 114 118 118 134 151 141 148 150 151 147 148 149 149 124 51 50 52 47 45 29 94 79 114 108 102 87 79 54 209 255 264 270 274 290 290 273 270 269